Weather History for Plant City, FL

Change the Weather History Date:

Monday, November 5, 2012

  Actual Average Record
Temperature  
Mean Temperature 71 °F -  
Max Temperature 80 °F 79 °F 89 °F (1959)
Min Temperature 62 °F 57 °F 37 °F (1945)
Cooling Degree Days 6    
Growing Degree Days 21 (Base 50)    
Moisture  
Dew Point 59 °F    
Average Humidity 63    
Maximum Humidity 100    
Minimum Humidity 42    
Precipitation  
Precipitation 0.00 in - - ()
Sea Level Pressure  
Sea Level Pressure 30.00 in    
Wind  
Wind Speed 4 mph (WNW)    
Max Wind Speed 9 mph    
Max Gust Speed 26 mph    
Visibility 7 miles    
Events      
Averages and records for this station are not official NWS values.
T = Trace of Precipitation, MM = Missing Value Source: NWS Daily Summary

Daily Weather History Graph

Daily Weather History Graph

Search for Another Location

Airport:

Trip Planner

Search our weather history database for the weather conditions in past years. The results will help you decide how hot, cold, wet, or windy it might be!

Date:

Astronomy

Nov. 05, 2012 Rise Set
Actual Time 6:43 AM EST 5:41 PM EST
Civil Twilight 6:18 AM EST 6:05 PM EST
Nautical Twilight 5:50 AM EST 6:33 PM EST
Astronomical Twilight 5:23 AM EST 7:01 PM EST
Moon 11:16 PM EST (11/5) 12:00 PM EST (11/5)
Length of Visible Light 11h 46m
Length of Day
10h 58m
Waning Gibbous, 63% of the Moon is Illuminated
Nov 5
Waning Gibbous
Nov 6
Last Quarter
Nov 13
New
Nov 20
First Quarter
Nov 28
Full

Hourly Weather History & Observations

Time (EST) Temp. Heat Index Dew Point Humidity Pressure Visibility Wind Dir Wind Speed Gust Speed Precip Events Conditions
12:15 AM 64.4 °F - - N/A% 30.05 in 5.0 mi West 3.5 mph - N/A   Haze
12:35 AM 64.4 °F - - N/A% 30.04 in 5.0 mi West 3.5 mph - N/A   Haze
12:55 AM 66.2 °F - - N/A% 30.04 in 3.0 mi Calm Calm - N/A   Clear
1:15 AM 64.4 °F - - N/A% 30.04 in 3.0 mi West 4.6 mph - N/A   Scattered Clouds
1:35 AM 66.2 °F - - N/A% 30.03 in 2.5 mi West 4.6 mph - N/A   Scattered Clouds
1:55 AM 66.2 °F - - N/A% 30.03 in 2.5 mi West 3.5 mph - N/A   Clear
2:15 AM 66.2 °F - - N/A% 30.02 in 1.8 mi West 3.5 mph - N/A   Mist
2:35 AM 66.2 °F - - N/A% 30.02 in 2.0 mi West 4.6 mph - N/A   Clear
2:55 AM 66.2 °F - - N/A% 30.01 in 2.5 mi West 3.5 mph - N/A   Scattered Clouds
3:15 AM 66.2 °F - - N/A% 30.01 in 2.0 mi WSW 3.5 mph - N/A   Scattered Clouds
3:35 AM 66.2 °F - - N/A% 30.01 in 2.0 mi Calm Calm - N/A   Clear
3:55 AM 66.2 °F - - N/A% 30.01 in 1.0 mi Calm Calm - N/A   Mist
4:15 AM 66.2 °F - - N/A% 30.02 in 1.5 mi Calm Calm - N/A   Mist
4:35 AM 66.2 °F - - N/A% 30.02 in 1.2 mi Calm Calm - N/A   Scattered Clouds
4:55 AM 66.2 °F - - N/A% 30.01 in 1.5 mi West 3.5 mph - N/A   Scattered Clouds
5:15 AM 66.2 °F - - N/A% 30.01 in 1.2 mi Calm Calm - N/A   Mist
5:35 AM 64.4 °F - - N/A% 30.02 in 1.2 mi West 3.5 mph - N/A   Mist
5:55 AM 64.4 °F - - N/A% 30.02 in 1.8 mi Calm Calm - N/A   Mist
6:15 AM 64.4 °F - - N/A% 30.02 in 2.0 mi West 3.5 mph - N/A   Clear
6:35 AM 64.4 °F - - N/A% 30.03 in 2.0 mi West 4.6 mph - N/A   Clear
6:55 AM 64.4 °F - - N/A% 30.02 in 1.5 mi West 3.5 mph - N/A   Mist
7:15 AM 66.2 °F - - N/A% 30.03 in 2.0 mi Calm Calm - N/A   Clear
7:35 AM 68.0 °F - - N/A% 30.02 in 2.5 mi NW 3.5 mph - N/A   Clear
7:55 AM 68.0 °F - - N/A% 30.03 in 5.0 mi West 4.6 mph - N/A   Haze
8:15 AM 69.8 °F - - N/A% 30.03 in 7.0 mi WNW 4.6 mph - N/A   Clear
8:35 AM 71.6 °F - - N/A% 30.03 in 10.0 mi West 5.8 mph - N/A   Clear
8:55 AM 73.4 °F - - N/A% 30.03 in 10.0 mi WNW 4.6 mph - N/A   Clear
9:15 AM 73.4 °F - 68.0 °F 83% 30.03 in 10.0 mi NW 4.6 mph - N/A   Scattered Clouds
9:35 AM 73.4 °F - 68.0 °F 83% 30.03 in 10.0 mi NW 6.9 mph - N/A   Clear
9:55 AM 73.4 °F - 66.2 °F 78% 30.04 in 10.0 mi NW 6.9 mph - N/A   Clear
10:15 AM 75.2 °F - 64.4 °F 69% 30.03 in 10.0 mi NW 9.2 mph 26.5 mph N/A   Clear
10:35 AM 75.2 °F - 64.4 °F 69% 30.03 in 10.0 mi NW 5.8 mph - N/A   Clear
10:55 AM 77.0 °F - 64.4 °F 65% 30.03 in 10.0 mi WNW 4.6 mph - N/A   Clear
11:15 AM 77.0 °F - 62.6 °F 61% 30.03 in 10.0 mi West 5.8 mph - N/A   Clear
11:35 AM 77.0 °F - 64.4 °F 65% 30.02 in 10.0 mi NW 6.9 mph - N/A   Scattered Clouds
11:55 AM 77.0 °F - 64.4 °F 65% 30.02 in 10.0 mi West 6.9 mph - N/A   Scattered Clouds
12:15 PM 78.8 °F - 62.6 °F 57% 30.01 in 10.0 mi WNW 8.1 mph - N/A   Mostly Cloudy
12:35 PM 78.8 °F - 62.6 °F 57% 29.99 in 10.0 mi Calm Calm - N/A   Scattered Clouds
12:55 PM 78.8 °F - 59.0 °F 51% 29.99 in 10.0 mi NW 4.6 mph - N/A   Scattered Clouds
1:15 PM 78.8 °F - 59.0 °F 51% 29.98 in 10.0 mi NNW 4.6 mph - N/A   Scattered Clouds
1:35 PM 78.8 °F - 57.2 °F 47% 29.97 in 10.0 mi WNW 8.1 mph - N/A   Clear
1:55 PM 80.6 °F 80.5 °F 55.4 °F 42% 29.96 in 10.0 mi NW 8.1 mph - N/A   Clear
2:15 PM 78.8 °F - 55.4 °F 44% 29.96 in 10.0 mi WNW 6.9 mph - N/A   Clear
2:35 PM 78.8 °F - 53.6 °F 42% 29.96 in 10.0 mi NNW 5.8 mph - N/A   Clear
2:55 PM 78.8 °F - 53.6 °F 42% 29.96 in 10.0 mi NNW 6.9 mph - N/A   Clear
3:15 PM 78.8 °F - 53.6 °F 42% 29.96 in 10.0 mi NW 8.1 mph - N/A   Clear
3:35 PM 78.8 °F - 53.6 °F 42% 29.95 in 10.0 mi WNW 3.5 mph - N/A   Clear
3:55 PM 78.8 °F - 53.6 °F 42% 29.96 in 10.0 mi WNW 5.8 mph - N/A   Clear
4:15 PM 77.0 °F - 53.6 °F 44% 29.96 in 10.0 mi NW 8.1 mph - N/A   Clear
4:35 PM 77.0 °F - 53.6 °F 44% 29.96 in 10.0 mi NW 3.5 mph - N/A   Clear
4:55 PM 75.2 °F - 55.4 °F 50% 29.96 in 10.0 mi NW 6.9 mph - N/A   Clear
5:15 PM 75.2 °F - 55.4 °F 50% 29.96 in 10.0 mi NW 6.9 mph - N/A   Scattered Clouds
5:35 PM 73.4 °F - 55.4 °F 53% 29.97 in 10.0 mi NW 5.8 mph - N/A   Clear
5:55 PM 73.4 °F - 55.4 °F 53% 29.97 in 10.0 mi NW 3.5 mph - N/A   Clear
6:15 PM 71.6 °F - 55.4 °F 57% 29.97 in 10.0 mi Calm Calm - N/A   Clear
6:35 PM 71.6 °F - 55.4 °F 57% 29.98 in 10.0 mi WNW 3.5 mph - N/A   Clear
6:55 PM 69.8 °F - 57.2 °F 64% 29.98 in 10.0 mi WNW 3.5 mph - N/A   Clear
7:15 PM 69.8 °F - 57.2 °F 64% 29.99 in 10.0 mi Calm Calm - N/A   Clear
7:35 PM 69.8 °F - 57.2 °F 64% 29.99 in 10.0 mi NW 3.5 mph - N/A   Clear
7:55 PM 69.8 °F - 57.2 °F 64% 29.99 in 10.0 mi NW 4.6 mph - N/A   Clear
8:15 PM 68.0 °F - 57.2 °F 68% 30.00 in 10.0 mi NW 4.6 mph - N/A   Clear
8:35 PM 68.0 °F - 57.2 °F 68% 30.00 in 10.0 mi Calm Calm - N/A   Scattered Clouds
8:55 PM 66.2 °F - 57.2 °F 73% 30.00 in 10.0 mi West 4.6 mph - N/A   Mostly Cloudy
9:15 PM 66.2 °F - 59.0 °F 78% 30.00 in 10.0 mi West 3.5 mph - N/A   Overcast
9:35 PM 66.2 °F - 59.0 °F 78% 30.00 in 10.0 mi Calm Calm - N/A   Overcast
9:55 PM 66.2 °F - 59.0 °F 78% 30.00 in 10.0 mi Calm Calm - N/A   Scattered Clouds
10:15 PM 66.2 °F - 59.0 °F 78% 30.00 in 10.0 mi Calm Calm - N/A   Scattered Clouds
10:35 PM 64.4 °F - 59.0 °F 83% 30.00 in 10.0 mi Calm Calm - N/A   Scattered Clouds
10:55 PM 62.6 °F - 60.8 °F 94% 30.00 in 10.0 mi NNE 4.6 mph - N/A   Clear
11:15 PM 64.4 °F - 60.8 °F 88% 29.99 in 10.0 mi Calm Calm - N/A   Clear
11:35 PM 62.6 °F - 59.0 °F 88% 29.99 in 10.0 mi Calm Calm - N/A   Clear
11:55 PM 62.6 °F - 62.6 °F 100% 29.97 in 10.0 mi East 3.5 mph - N/A   Clear